Weather History for KMFV - January, 2013

Change the Weather History Date:

Saturday, January 19, 2013

  Actual Average (KWAL) Record (KWAL)
Temperature  
Mean Temperature 40 °F 36 °F  
Max Temperature 53 °F 45 °F 65 °F (1972)
Min Temperature 28 °F 28 °F 0 °F (1994)
Degree Days  
Heating Degree Days 24    
Month to date heating degree days  
Since 1 July heating degree days  
Cooling Degree Days 0    
Month to date cooling degree days  
Year to date cooling degree days  
Moisture  
Dew Point 28 °F    
Average Humidity 61    
Maximum Humidity 86    
Minimum Humidity 30    
Precipitation  
Precipitation 0.00 in 0.09 in 0.75 in (2002)
Month to date precipitation 1.87  
Year to date precipitation 1.87  
Sea Level Pressure  
Sea Level Pressure 30.33 in    
Wind  
Wind Speed 8 mph (SSW)    
Max Wind Speed 20 mph    
Max Gust Speed 24 mph    
Visibility 10 miles    
Events      
T = Trace of Precipitation, MM = Missing Value Source: NWS Daily Summary

Daily Weather History Graph

Daily Weather History Graph

Search for Another Location

Airport or City:

Trip Planner

Search our weather history database for the weather conditions in past years. The results will help you decide how hot, cold, wet, or windy it might be!

Date:

Astronomy

Jan. 19, 2013 Rise Set
Actual Time 7:15 AM EST 5:12 PM EST
Civil Twilight 6:46 AM EST 5:41 PM EST
Nautical Twilight 6:14 AM EST 6:13 PM EST
Astronomical Twilight 5:43 AM EST 6:44 PM EST
Moon 11:36 AM EST (1/19) 12:49 AM EST (1/19)
Length of Visible Light 10h 54m
Length of Day
9h 57m
First Quarter, 57% of the Moon is Illuminated
Jan 19
First Quarter
Jan 26
Full
Feb 3
Last Quarter
Feb 10
New
Feb 17
First Quarter

Hourly Weather History & Observations

Time (EST) Temp. Windchill Dew Point Humidity Pressure Visibility Wind Dir Wind Speed Gust Speed Precip Events Conditions
12:16 AM 28.4 °F 23.3 °F 24.8 °F 86% 30.51 in 10.0 mi SSW 4.6 mph - N/A   Clear
12:38 AM 28.4 °F 23.3 °F 24.8 °F 86% 30.50 in 10.0 mi South 4.6 mph - N/A   Clear
12:56 AM 30.2 °F 23.4 °F 24.8 °F 80% 30.49 in 10.0 mi South 6.9 mph - N/A   Clear
1:16 AM 30.2 °F 26.7 °F 23.0 °F 75% 30.49 in 10.0 mi South 3.5 mph - N/A   Clear
1:36 AM 28.4 °F 22.2 °F 24.8 °F 86% 30.49 in 10.0 mi South 5.8 mph - N/A   Clear
1:57 AM 28.4 °F 21.2 °F 24.8 °F 86% 30.49 in 10.0 mi South 6.9 mph - N/A   Clear
2:16 AM 32.0 °F 25.6 °F 23.0 °F 69% 30.49 in 10.0 mi South 6.9 mph - N/A   Clear
2:37 AM 32.0 °F 24.8 °F 24.8 °F 75% 30.49 in 10.0 mi South 8.1 mph - N/A   Clear
2:57 AM 33.8 °F 27.0 °F 24.8 °F 70% 30.48 in 10.0 mi South 8.1 mph - N/A   Clear
3:16 AM 33.8 °F 27.7 °F 24.8 °F 70% 30.48 in 10.0 mi South 6.9 mph - N/A   Clear
3:36 AM 33.8 °F 27.7 °F 24.8 °F 70% 30.47 in 10.0 mi South 6.9 mph - N/A   Clear
3:56 AM 33.8 °F 27.7 °F 24.8 °F 70% 30.47 in 10.0 mi South 6.9 mph - N/A   Clear
4:16 AM 33.8 °F 27.7 °F 26.6 °F 75% 30.46 in 10.0 mi South 6.9 mph - N/A   Clear
4:36 AM 33.8 °F 27.7 °F 26.6 °F 75% 30.46 in 10.0 mi South 6.9 mph - N/A   Clear
4:57 AM 33.8 °F 28.6 °F 26.6 °F 75% 30.46 in 10.0 mi South 5.8 mph - N/A   Clear
5:16 AM 33.8 °F 27.7 °F 26.6 °F 75% 30.45 in 10.0 mi SSW 6.9 mph - N/A   Clear
5:36 AM 33.8 °F 27.7 °F 26.6 °F 75% 30.45 in 10.0 mi South 6.9 mph - N/A   Clear
5:56 AM 35.6 °F 30.7 °F 26.6 °F 70% 30.45 in 10.0 mi SSW 5.8 mph - N/A   Clear
6:17 AM 33.8 °F 27.7 °F 26.6 °F 75% 30.45 in 10.0 mi SSW 6.9 mph - N/A   Clear
6:36 AM 33.8 °F 28.6 °F 26.6 °F 75% 30.45 in 10.0 mi South 5.8 mph - N/A   Clear
6:56 AM 33.8 °F 29.6 °F 26.6 °F 75% 30.45 in 10.0 mi South 4.6 mph - N/A   Clear
7:16 AM 32.0 °F 27.5 °F 26.6 °F 80% 30.44 in 10.0 mi South 4.6 mph - N/A   Clear
7:38 AM 33.8 °F 29.6 °F 24.8 °F 70% 30.45 in 10.0 mi South 4.6 mph - N/A   Clear
7:56 AM 35.6 °F 31.7 °F 24.8 °F 65% 30.45 in 10.0 mi South 4.6 mph - N/A   Clear
8:16 AM 35.6 °F 32.8 °F 24.8 °F 65% 30.45 in 10.0 mi South 3.5 mph - N/A   Clear
8:36 AM 37.4 °F 33.8 °F 26.6 °F 65% 30.45 in 10.0 mi South 4.6 mph - N/A   Clear
8:58 AM 39.2 °F 35.0 °F 26.6 °F 61% 30.45 in 10.0 mi South 5.8 mph - N/A   Clear
9:16 AM 39.2 °F 35.0 °F 28.4 °F 65% 30.45 in 10.0 mi SSW 5.8 mph - N/A   Clear
9:40 AM 42.8 °F 37.5 °F 28.4 °F 57% 30.44 in 10.0 mi SW 9.2 mph - N/A   Clear
9:56 AM 42.8 °F 36.6 °F 28.4 °F 57% 30.44 in 10.0 mi SW 11.5 mph - N/A   Clear
10:16 AM 44.6 °F 39.7 °F 28.4 °F 53% 30.44 in 10.0 mi SW 9.2 mph - N/A   Clear
10:36 AM 44.6 °F 39.2 °F 28.4 °F 53% 30.43 in 10.0 mi SW 10.4 mph - N/A   Clear
10:58 AM 46.4 °F 41.5 °F 28.4 °F 50% 30.41 in 10.0 mi SW 10.4 mph 17.3 mph N/A   Clear
11:16 AM 46.4 °F 41.5 °F 26.6 °F 46% 30.40 in 10.0 mi SW 10.4 mph - N/A   Clear
11:36 AM 48.2 °F - 21.2 °F 34% 30.38 in 10.0 mi SSW 15.0 mph 20.7 mph N/A   Clear
11:56 AM 48.2 °F - 21.2 °F 34% 30.36 in 10.0 mi SW 17.3 mph 21.9 mph N/A   Clear
12:16 PM 48.2 °F - 21.2 °F 34% 30.34 in 10.0 mi SW 15.0 mph 24.2 mph N/A   Clear
12:38 PM 50.0 °F - 21.2 °F 32% 30.33 in 10.0 mi SW 12.7 mph 18.4 mph N/A   Clear
12:56 PM 50.0 °F - 19.4 °F 30% 30.31 in 10.0 mi SSW 13.8 mph 19.6 mph N/A   Clear
1:18 PM 50.0 °F - 19.4 °F 30% 30.30 in 10.0 mi SW 19.6 mph 24.2 mph N/A   Clear
1:36 PM 50.0 °F - 19.4 °F 30% 30.29 in 10.0 mi SW 13.8 mph 21.9 mph N/A   Clear
1:56 PM 51.8 °F - 21.2 °F 30% 30.27 in 10.0 mi SW 9.2 mph 18.4 mph N/A   Clear
2:56 PM 51.8 °F - 21.2 °F 30% 30.25 in 10.0 mi SSW 11.5 mph - N/A   Clear
3:16 PM 51.8 °F - 21.2 °F 30% 30.24 in 10.0 mi SW 11.5 mph 17.3 mph N/A   Clear
3:56 PM 53.6 °F - 24.8 °F 33% 30.22 in 10.0 mi South 8.1 mph - N/A   Clear
4:16 PM 48.2 °F - 33.8 °F 58% 30.22 in 10.0 mi South 9.2 mph - N/A   Clear
4:36 PM 48.2 °F - 33.8 °F 58% 30.21 in 10.0 mi South 8.1 mph - N/A   Clear
4:56 PM 46.4 °F 42.4 °F 33.8 °F 62% 30.21 in 10.0 mi South 8.1 mph - N/A   Clear
5:16 PM 46.4 °F 42.9 °F 35.6 °F 66% 30.20 in 10.0 mi SSW 6.9 mph - N/A   Clear
5:36 PM 44.6 °F 40.7 °F 35.6 °F 71% 30.20 in 10.0 mi South 6.9 mph - N/A   Clear
5:56 PM 44.6 °F 42.2 °F 35.6 °F 71% 30.20 in 10.0 mi SSW 4.6 mph - N/A   Clear
6:16 PM 44.6 °F 40.2 °F 37.4 °F 76% 30.19 in 10.0 mi SSW 8.1 mph - N/A   Clear
6:36 PM 44.6 °F 39.7 °F 37.4 °F 76% 30.19 in 10.0 mi SSW 9.2 mph - N/A   Clear
6:56 PM 44.6 °F 39.7 °F 37.4 °F 76% 30.19 in 10.0 mi South 9.2 mph - N/A   Clear
7:16 PM 44.6 °F 39.2 °F 37.4 °F 76% 30.18 in 10.0 mi South 10.4 mph - N/A   Clear
7:36 PM 46.4 °F 41.9 °F 35.6 °F 66% - 10.0 mi South 9.2 mph - N/A   Clear
7:56 PM 44.6 °F 39.7 °F 35.6 °F 71% 30.18 in 10.0 mi SSW 9.2 mph - N/A   Clear
8:16 PM 44.6 °F 39.2 °F 33.8 °F 66% 30.17 in 10.0 mi SSW 10.4 mph - N/A   Clear
8:36 PM 46.4 °F 41.5 °F 33.8 °F 62% 30.16 in 10.0 mi SSW 10.4 mph - N/A   Clear
8:56 PM 46.4 °F 42.4 °F 32.0 °F 57% 30.16 in 10.0 mi SW 8.1 mph - N/A   Clear
9:16 PM 46.4 °F 41.9 °F 30.2 °F 53% 30.15 in 10.0 mi SW 9.2 mph - N/A   Clear
9:36 PM 46.4 °F 41.9 °F 30.2 °F 53% 30.15 in 10.0 mi SW 9.2 mph - N/A   Clear
9:56 PM 46.4 °F 41.9 °F 30.2 °F 53% 30.15 in 10.0 mi SW 9.2 mph 16.1 mph N/A   Clear
10:16 PM 46.4 °F 41.1 °F 30.2 °F 53% 30.14 in 10.0 mi SW 11.5 mph - N/A   Clear
10:36 PM 46.4 °F 41.1 °F 30.2 °F 53% 30.13 in 10.0 mi SW 11.5 mph 20.7 mph N/A   Clear
10:56 PM 46.4 °F 41.1 °F 30.2 °F 53% 30.11 in 10.0 mi SW 11.5 mph 19.6 mph N/A   Clear
11:16 PM 46.4 °F 40.7 °F 30.2 °F 53% 30.11 in 10.0 mi SW 12.7 mph - N/A   Clear
11:36 PM 46.4 °F 40.4 °F 28.4 °F 50% 30.10 in 10.0 mi SW 13.8 mph 20.7 mph N/A   Clear
11:56 PM 46.4 °F 40.4 °F 28.4 °F 50% 30.09 in 10.0 mi SW 13.8 mph 18.4 mph N/A   Clear